www.pogodaiklimat.ru

Погода и климат >> Архив погоды >> Россия >> город Санкт-Петербург >> Воейково


ПОГОДА в Воейково

  • Прогноз погоды в Воейково
  • Монитор погоды в Воейково

АРХИВ ПОГОДЫ в Воейково

Время (UTC), дата Ветер
(напр.,м/с)
 
Видим.   Явления Облачность Т
(С)
Тd
(С)
f
(%)
Тe
(С)
Тes
(С)
Комфортность P
(гПа)
Po
(гПа)
Тmin
(С)
Tmax
(С)
R
(мм)
R24
(мм)
S
(см)
00 13.06 В 2 20 км 9/0 2000 м
[Ac trans Ci fib]
+8.0 +0.8 60 +6 +6 1029.1 1019.6
03 13.06 В 2 20 км 8/0 2000 м
[Ac trans]
+7.9 +2.5 69 +6 +7 1028.8 1019.3 +6.4
06 13.06 ЮВ 2 20 км 8/0 2000 м
[Ac trans Ci fib]
+12.5 +4.2 57 +12 +16 1028.1 1018.8 +6.4
09 13.06 ЮВ 3 20 км 9/0 2000 м
[Ac trans Ci fib]
+15.6 +4.2 47 +15 +21 1027.2 1018.0
12 13.06 В 1 20 км в посл. час ливневой дождь 9/0 2000 м
[Ac trans]
+16.4 +5.6 49 +17 +24 1025.0 1015.9
15 13.06 ЮВ 2 20 км 6/0 2000 м
[Ac trans Ci fib]
+18.3 +5.9 44 +19 +22 1023.2 1014.1 0.0
18 13.06 ЮВ 1 20 км 9/1 600 м
[Cu med, cong Ac und]
+16.4 +6.3 51 +17 +17 1021.6 1012.5 +18.6 0.0
21 13.06 ЮВ 1 10 км гроза, ливневой дождь 10/8 600 м
[Cb cap Ac cuf]
+12.0 +9.7 86 +12 +12 1020.9 1011.7
00 14.06 В 1 4000 м дымка {гроза, ливн. осадки} 10/8 1200 м
[Sc diur, vesp As op]
+11.2 +10.7 97 +11 +11 1018.3 1009.1
03 14.06 В 1 20 км 10/8 1300 м
[Sc As op]
+11.9 +11.2 95 +12 +12 1016.1 1006.9 +11.2 6
06 14.06 СВ 1 20 км 10/0 2000 м
[Ac As]
+13.3 +12.0 92 +13 +16 1016.5 1007.3 +11.2 6
09 14.06 СВ 3 20 км {ливн. осадки} 10/9 400 м
[Frnb Ac As]
+13.9 +11.3 84 +13 +13 1017.3 1008.2
12 14.06 СВ 1 20 км 10/9 1020 м
[Cu Sc Ac As]
+14.5 +11.5 82 +15 +15 1018.1 1009.0
15 14.06 СВ 2 20 км 10/3 960 м
[Frnb Ac und]
+14.9 +11.8 82 +15 +16 1017.1 1008.0 0.0
18 14.06 В 1 20 км 10/10 800 м
[Sc]
+13.1 +11.8 92 +13 +13 1016.7 1007.5 +16.0 0.0
21 14.06 ЮВ 1 2000 м слаб. дождь {морось} 10/10 90 м
[Sc]
+12.3 +11.9 97 +12 +12 1016.7 1007.5
00 15.06 З 2 2000 м слаб. морось {дождь} 10/10 90 м
[Sc]
+13.3 +13.0 98 +12 +12 1015.3 1006.2
03 15.06 З 3 4000 м слаб. морось 10/10 120 м
[Sc]
+12.7 +12.4 98 +11 +11 1014.9 1005.7 +12.3 0.6
06 15.06 З 4 1000 м слаб. морось 10/10 60 м
[St]
+13.5 +13.3 99 +12 +12 1014.8 1005.7 +12.3 1
09 15.06 З 3
{10}
4000 м дымка 10/10 120 м
[St]
+14.1 +13.0 93 +13 +13 1015.3 1006.2
12 15.06 З 2 10 км {морось} 10/10 180 м
[St]
+14.0 +12.9 93 +13 +13 1016.1 1007.0
15 15.06 З 2 10 км {морось} 10/10 240 м
[Frnb]
+14.3 +12.8 91 +14 +14 1016.1 1007.0 0.8
18 15.06 З 2 10 км {морось} 10/10 400 м
[Frnb]
+14.2 +12.7 91 +14 +14 1016.2 1007.1 +15.0 0.1
21 15.06 З 1 4000 м дымка {ливн. осадки} 10/10 400 м
[Frnb]
+13.5 +13.1 97 +14 +14 1016.0 1006.9
00 16.06 З 1 4000 м дымка {ливн. осадки} 10/10 360 м
[Frnb]
+13.8 +13.4 97 +14 +14 1016.1 1007.0
03 16.06 штиль 0 4000 м дымка 9/9 1410 м
[Sc]
+14.0 +13.3 96 +14 +14 1015.9 1006.8 +13.3 0.3
06 16.06 СЗ 1 20 км 10/10 400 м
[Cu med, cong]
+16.1 +13.6 85 +17 +17 1016.1 1007.0 +13.3 0.3
09 16.06 СЗ 2 20 км 9/9 1200 м
[Sc]
+17.9 +13.0 73 +18 +20 1016.1 1007.1
12 16.06 20 км н/о +21.0 +11.8 56 +24 +29 комфорт 1014.8 1005.9
15 16.06 З 4 20 км ясно +21.4 +11.9 55 +24 +27 комфорт 1014.1 1005.2
18 16.06 З 3 20 км ясно +18.0 +11.4 65 +18 +18 1013.8 1004.8 +21.9
21 16.06 З 2 20 км 3/0 2000 м
[Ac trans]
+14.0 +11.3 84 +13 +13 1013.4 1004.3
00 17.06 З 1 10 км 3/0 2000 м
[Ac trans]
+11.7 +11.2 97 +11 +11 1013.3 1004.1
03 17.06 ЮЗ 1 20 км 9/0 2000 м
[Ac trans Ci fib]
+13.5 +11.6 88 +14 +14 1012.9 1003.8 +10.6
06 17.06 З 3 20 км 1/0 2000 м
[Ac trans]
+19.3 +12.1 63 +21 +27 комфорт 1012.3 1003.4 +10.6
09 17.06 З 4 20 км 8/1 1000 м
[Sc Ci fib]
+22.6 +13.3 56 +26 +33 жарко 1012.2 1003.4
12 17.06 ЮЗ 3 20 км 10/3 1000 м
[Sc Ci fib]
+23.4 +12.7 51 +26 +32 жарко 1011.9 1003.1
15 17.06 З 4 20 км 8/0 2000 м
[Ac trans Ci fib]
+22.8 +9.5 43 +24 +27 комфорт 1012.0 1003.2
18 17.06 З 3 20 км 4/0 2000 м
[Ac trans Ci fib]
+19.7 +11.7 60 +21 +22 комфорт 1011.5 1002.6 +24.3
21 17.06 З 3 20 км 9/0 2000 м
[Ac trans Ci fib]
+16.5 +13.4 82 +16 +16 1011.9 1002.9
00 18.06 З 3 20 км 9/0 2000 м
[Ac As]
+16.0 +9.4 65 +16 +16 1012.2 1003.2
03 18.06 З 3 20 км 4/0 2000 м
[Ac trans]
+14.9 +10.6 75 +14 +15 1012.6 1003.5 +14.6
06 18.06 З 3 20 км ясно +18.0 +12.5 70 +18 +24 1013.1 1004.1 +14.6
09 18.06 З 5 20 км ясно +21.8 +10.1 47 +23 +31 комфорт 1013.5 1004.6
12 18.06 З 4
{11}
20 км ясно +22.5 +13.2 56 +25 +34 комфорт 1013.8 1005.0
15 18.06 З 6 20 км ясно +20.8 +10.4 51 +22 +24 комфорт 1014.4 1005.4
18 18.06 З 3
{13}
20 км ясно +18.2 +10.6 61 +19 +19 1014.5 1005.5 +22.8
21 18.06 З 3 20 км ясно +15.2 +10.3 73 +15 +15 1015.1 1006.0
00 19.06 З 3 20 км ясно +14.6 +11.9 84 +14 +14 1015.5 1006.4
03 19.06 З 3 20 км ясно +15.3 +13.0 86 +15 +16 1015.9 1006.8 +14.2
06 19.06 З 3 20 км 6/0
[Ci fib]
+18.9 +13.9 73 +20 +26 1016.2 1007.2 +14.2
09 19.06 З 4 20 км 9/0
[Ci fib]
+22.3 +12.7 55 +25 +33 комфорт 1016.5 1007.6
12 19.06 ЮЗ 3 20 км 8/0
[Ci fib]
+24.4 +13.2 50 +27 +35 жарко 1015.8 1007.0
15 19.06 ЮЗ 4 20 км 8/0
[Ci fib]
+24.2 +11.3 44 +26 +28 жарко 1014.7 1005.7
18 19.06 З 1 20 км 9/0
[Ci fib]
+21.1 +12.3 57 +23 +23 комфорт 1014.6 1005.7 +24.8

 

Местоположение метеостанции Воейково (город Санкт-Петербург, Россия): широта 59.95 долгота 30.70 высота над уровнем моря 75 м.

В архиве по умолчанию представлена погода в Воейково за последнюю неделю. Архивные данные за месяц целиком и за предыдущие месяцы, начиная с января 2011 года, Вы можете получить, выбрав интересующий диапазон дат из раскрывающегося списка и нажав кнопку "Ввод!".


*Определитесь, кто Вы:
робот инопланетянин человек

Внимание! Время в таблицах - всемирное. Для получения местного времени необходимо прибавить поправку, которая равна 3 ч.

Смотрите также архив погоды в соседних городах и на ближайших метеорологических станциях:

Погода в Шлиссельбурге (Ленинградская область, Россия) (17 км)
Погода в Санкт-Петербурге (город Санкт-Петербург, Россия) (22 км)
Погода в Лисьем Носу (город Санкт-Петербург, Россия) (41 км)
Погода в Ломоносове (город Санкт-Петербург, Россия) (51 км)
Погода в Кронштадте (город Санкт-Петербург, Россия) (52 км)
Погода в Рощино (Ленинградская область, Россия) (68 км)
Погода в Сосново (Ленинградская область, Россия) (70 км)
Погода в Любани (Ленинградская область, Россия) (73 км)
Погода в Белогорке (Ленинградская область, Россия) (74 км)
Погода в Шепелево (Ленинградская область, Россия) (80 км)

Пояснения к столбцам:

Ветер - указаны скорость ветра в м/с - средняя за 10 мин, порывы в срок и между сроками (в фигурных скобках) и направление, откуда дует ветер: С - северный, СВ - северо-восточный, В - восточный, ЮВ - юго-восточный, Ю - южный, ЮЗ - юго-западный, З - западный, СЗ - северо-западный.
Видимость - горизонтальная дальность видимости в метрах или километрах. При видимости от 1 до 10 км при отсутствии осадков обычно наблюдается дымка, при ухудшении видимости до 1 км и менее - туман. В сухую погоду видимость может ухудшаться дымом, пылью или мглою.
Явления - указаны атмосферные явления, наблюдавшиеся в срок или в последний час перед сроком; фигурными скобками обозначены явления, наблюдавшиеся между сроками (за 1-3 часа до срока); квадратными скобками обозначены град или гололедные отложения с указанием их диаметра в мм.
Облачность - указаны через наклонную черту общая и нижняя облачность в баллах и высота нижней границы облаков в метрах; квадратными скобками обозначены формы облаков: Ci - перистые, Cs - перисто-слоистые, Cc - перисто-кучевые, Ac - высококучевые, As - высокослоистые, Sc - слоисто-кучевые, Ns - слоисто-дождевые, Cu - кучевые, Cb - кучево-дождевые. Подробнее классификацию облаков см. в Атласе облаков (PDF).
T - Температура воздуха - температура, измеренная на высоте 2 м над землей.
Td - Температура точки росы - температура, при понижении до которой содержащийся в воздухе водяной пар достигнет насыщения.
f - Относительная влажность воздуха - влажноcть воздуха, измеренная на высоте 2 м над землей.
Te - Эффективная температура - температура, которую ощущает одетый по сезону человек в тени. Характеристика душности погоды. При расчете учитывается влияние влажности воздуха и скорости ветра на теплоощущения человека.
Tes - Эффективная температура на солнце - температура, которую ощущает человек, с поправкой на солнечный нагрев. Характеристика знойности погоды. Зависит от высоты солнца над горизонтом, облачности и скорости ветра. Ночью, в пасмурную погоду, а также при ветре 12 м/с и более поправка равна нулю.
P - Атмосферное давление - приведенное к уровню моря атмосферное давление.
Po - Атмосферное давление - измеренное на уровне метеостанции атмосферное давление.
Tmin - Минимальная температура - минимум температуры воздуха на высоте 2 м над землей.
Tmax - Максимальная температура - максимум температуры воздуха на высоте 2 м над землей.
R - Количество осадков - Количество выпавших осадков за период времени, мм. При наведении курсора мыши на число - период времени, за который выпало указанное количество осадков.
R24 - Количество осадков - Количество выпавших осадков за 24 часа, мм.
S - Снежный покров - Высота снежного покрова, см. При наведении курсора мыши на число - состояние снежного покрова и степень покрытия местности в баллах.